| time (UTC) | temp F | wind direction | speed knots | gust knots | rain 1hr in | rain 24hr in | rain mn in | humidity % | barometer mb |
| 20260506114104 | 73 | 0.0 | 0.0 | 0.00 | 0.00 | 0.00 | 92 | 1009.4 | |
| 20260506113602 | 73 | 0.0 | 0.0 | 0.00 | 0.00 | 0.00 | 92 | 1009.3 | |
| 20260506113100 | 73 | 0.0 | 0.0 | 0.00 | 0.00 | 0.00 | 92 | 1009.4 | |
| 20260506112558 | 73 | 0.0 | 0.0 | 0.00 | 0.00 | 0.00 | 92 | 1009.4 | |
| 20260506112054 | 74 | 0.0 | 0.0 | 0.00 | 0.00 | 0.00 | 92 | 1009.5 | |
| 20260506111552 | 74 | 0.0 | 0.0 | 0.00 | 0.00 | 0.00 | 92 | 1009.4 | |
| 20260506111050 | 74 | 0.0 | 0.0 | 0.00 | 0.00 | 0.00 | 91 | 1009.5 | |
| 20260506110548 | 74 | 0.0 | 0.0 | 0.00 | 0.00 | 0.00 | 91 | 1009.5 | |
| 20260506110044 | 74 | 0.0 | 0.0 | 0.00 | 0.00 | 0.00 | 91 | 1009.5 | |
| 20260506105542 | 74 | 0.0 | 0.0 | 0.00 | 0.00 | 0.00 | 91 | 1009.5 | |
| 20260506105040 | 74 | 0.0 | 0.0 | 0.00 | 0.00 | 0.00 | 91 | 1009.5 | |
| 20260506104538 | 74 | 0.0 | 0.0 | 0.00 | 0.00 | 0.00 | 91 | 1009.5 | |
| 20260506104034 | 74 | 0.0 | 0.0 | 0.00 | 0.00 | 0.00 | 91 | 1009.5 | |
| 20260506103532 | 74 | 0.0 | 0.0 | 0.00 | 0.00 | 0.00 | 91 | 1009.4 | |
| 20260506103030 | 74 | 0.0 | 0.0 | 0.00 | 0.00 | 0.00 | 91 | 1009.3 | |
| 20260506102528 | 74 | 0.0 | 0.0 | 0.00 | 0.00 | 0.00 | 91 | 1009.2 | |
| 20260506102024 | 74 | 0.0 | 0.9 | 0.00 | 0.00 | 0.00 | 91 | 1009.2 | |
| 20260506101522 | 74 | 0.0 | 0.9 | 0.00 | 0.00 | 0.00 | 91 | 1009.1 | |
| 20260506101020 | 74 | 0.0 | 0.0 | 0.00 | 0.00 | 0.00 | 90 | 1009.2 | |
| 20260506100518 | 74 | 0.0 | 3.5 | 0.00 | 0.00 | 0.00 | 90 | 1009.0 | |
| 20260506100014 | 74 | 0.0 | 3.5 | 0.00 | 0.00 | 0.00 | 90 | 1009.0 | |
| 20260506095512 | 75 | 0.0 | 0.0 | 0.00 | 0.00 | 0.00 | 90 | 1008.9 | |
| 20260506095010 | 75 | 0.0 | 0.0 | 0.00 | 0.00 | 0.00 | 89 | 1008.9 | |
| 20260506094508 | 75 | 0.0 | 3.5 | 0.00 | 0.00 | 0.00 | 89 | 1008.9 | |
| 20260506094004 | 75 | 171 | 0.9 | 4.3 | 0.00 | 0.00 | 0.00 | 89 | 1008.8 |
| 20260506093502 | 75 | 0.0 | 0.0 | 0.00 | 0.00 | 0.00 | 89 | 1008.8 | |
| 20260506092958 | 75 | 0.0 | 0.0 | 0.00 | 0.00 | 0.00 | 89 | 1008.6 | |
| 20260506092456 | 75 | 0.0 | 0.0 | 0.00 | 0.00 | 0.00 | 88 | 1008.5 | |
| 20260506091954 | 75 | 0.0 | 0.9 | 0.00 | 0.00 | 0.00 | 89 | 1008.6 | |
| 20260506091452 | 75 | 0.0 | 0.0 | 0.00 | 0.00 | 0.00 | 88 | 1008.6 | |
| 20260506090948 | 75 | 0.0 | 0.0 | 0.00 | 0.00 | 0.00 | 88 | 1008.5 | |
| 20260506090446 | 75 | 0.0 | 2.6 | 0.00 | 0.00 | 0.00 | 88 | 1008.5 | |
| 20260506085944 | 75 | 0.0 | 2.6 | 0.00 | 0.00 | 0.00 | 88 | 1008.5 | |
| 20260506085442 | 75 | 0.0 | 1.7 | 0.00 | 0.00 | 0.00 | 88 | 1008.4 | |
| 20260506084938 | 75 | 0.0 | 0.9 | 0.00 | 0.00 | 0.00 | 88 | 1008.3 | |
| 20260506084436 | 75 | 0.0 | 0.0 | 0.00 | 0.00 | 0.00 | 88 | 1008.3 | |
| 20260506083934 | 75 | 0.0 | 2.6 | 0.00 | 0.00 | 0.00 | 88 | 1008.4 | |
| 20260506083432 | 75 | 0.0 | 3.5 | 0.00 | 0.00 | 0.00 | 88 | 1008.5 | |
| 20260506082928 | 75 | 170 | 0.9 | 3.5 | 0.00 | 0.00 | 0.00 | 88 | 1008.4 |
| 20260506082429 | 75 | 0.0 | 2.6 | 0.00 | 0.00 | 0.00 | 88 | 1008.4 | |
| 20260506081924 | 75 | 0.0 | 4.3 | 0.00 | 0.00 | 0.00 | 88 | 1008.3 | |
| 20260506081422 | 75 | 0.0 | 4.3 | 0.00 | 0.00 | 0.00 | 88 | 1008.4 | |
| 20260506080918 | 75 | 185 | 0.9 | 3.5 | 0.00 | 0.00 | 0.00 | 88 | 1008.4 |
| 20260506080416 | 75 | 0.0 | 3.5 | 0.00 | 0.00 | 0.00 | 87 | 1008.4 | |
| 20260506073402 | 75 | 150 | 0.9 | 7.8 | 0.00 | 0.00 | 0.00 | 87 | 1008.4 |
| 20260506072858 | 75 | 203 | 0.9 | 7.8 | 0.00 | 0.00 | 0.00 | 87 | 1008.5 |
| 20260506072356 | 75 | 170 | 1.7 | 8.7 | 0.00 | 0.00 | 0.00 | 87 | 1008.5 |
| 20260506071854 | 75 | 202 | 1.7 | 8.7 | 0.00 | 0.00 | 0.00 | 87 | 1008.5 |
| 20260506071352 | 75 | 164 | 1.7 | 9.6 | 0.00 | 0.00 | 0.00 | 87 | 1008.6 |
| 20260506070848 | 75 | 171 | 1.7 | 10.4 | 0.00 | 0.00 | 0.00 | 87 | 1008.5 |
| 20260506070346 | 75 | 185 | 1.7 | 10.4 | 0.00 | 0.00 | 0.00 | 87 | 1008.4 |
| 20260506062326 | 75 | 167 | 0.9 | 7.8 | 0.00 | 0.00 | 0.00 | 87 | 1008.3 |
| 20260506061822 | 75 | 169 | 1.7 | 6.1 | 0.00 | 0.00 | 0.00 | 87 | 1008.4 |
| 20260506061320 | 75 | 0.0 | 7.0 | 0.00 | 0.00 | 0.00 | 87 | 1008.3 | |
| 20260506060818 | 75 | 168 | 1.7 | 11.3 | 0.00 | 0.00 | 0.00 | 87 | 1008.4 |
| 20260506060316 | 75 | 168 | 3.5 | 11.3 | 0.00 | 0.00 | 0.00 | 87 | 1008.3 |
| 20260506051249 | 75 | 0.9 | 5.2 | 0.00 | 0.00 | 0.00 | 88 | 1008.5 | |
| 20260506050747 | 75 | 206 | 0.9 | 5.2 | 0.00 | 0.00 | 0.00 | 88 | 1008.5 |
| 20260506050246 | 75 | 0.0 | 4.3 | 0.00 | 0.00 | 0.00 | 88 | 1008.5 | |
| 20260506044737 | 75 | 184 | 1.7 | 6.1 | 0.00 | 0.00 | 0.00 | 88 | 1008.4 |
| 20260506044235 | 75 | 190 | 0.9 | 5.2 | 0.00 | 0.00 | 0.00 | 88 | 1008.5 |
| 20260506043731 | 75 | 174 | 0.9 | 7.0 | 0.00 | 0.00 | 0.00 | 88 | 1008.5 |
| 20260506043229 | 75 | 174 | 1.7 | 7.0 | 0.00 | 0.00 | 0.00 | 88 | 1008.6 |
| 20260506042727 | 75 | 0.0 | 4.3 | 0.00 | 0.00 | 0.00 | 88 | 1008.5 | |
| 20260506042225 | 75 | 0.0 | 4.3 | 0.00 | 0.00 | 0.00 | 88 | 1008.4 | |
| 20260506041721 | 76 | 177 | 0.9 | 3.5 | 0.00 | 0.00 | 0.00 | 88 | 1008.4 |
| 20260506041219 | 76 | 0.0 | 3.5 | 0.00 | 0.00 | 0.00 | 87 | 1008.4 | |
| 20260506040717 | 76 | 0.0 | 4.3 | 0.00 | 0.00 | 0.00 | 87 | 1008.3 | |
| 20260506040215 | 76 | 0.0 | 3.5 | 0.00 | 0.00 | 0.00 | 87 | 1008.3 | |
| 20260506035711 | 76 | 0.0 | 0.9 | 0.00 | 0.00 | 0.00 | 86 | 1008.3 | |
| 20260506035209 | 76 | 0.0 | 3.5 | 0.00 | 0.00 | 0.00 | 86 | 1008.2 | |
| 20260506034707 | 76 | 182 | 0.9 | 6.1 | 0.00 | 0.00 | 0.00 | 86 | 1008.1 |
| 20260506034205 | 76 | 189 | 0.9 | 6.1 | 0.00 | 0.00 | 0.00 | 86 | 1008.0 |
| 20260506033701 | 76 | 189 | 0.9 | 4.3 | 0.00 | 0.00 | 0.00 | 86 | 1008.0 |
| 20260506033159 | 76 | 0.0 | 1.7 | 0.00 | 0.00 | 0.00 | 85 | 1007.9 | |
| 20260506032655 | 76 | 0.0 | 0.0 | 0.00 | 0.00 | 0.00 | 85 | 1008.0 | |
| 20260506032153 | 76 | 0.0 | 0.0 | 0.00 | 0.00 | 0.00 | 84 | 1007.9 | |
| 20260506031651 | 76 | 0.0 | 2.6 | 0.00 | 0.00 | 0.00 | 84 | 1007.8 | |
| 20260506031149 | 76 | 208 | 0.9 | 2.6 | 0.00 | 0.00 | 0.00 | 84 | 1007.8 |
| 20260506030645 | 76 | 0.0 | 2.6 | 0.00 | 0.00 | 0.00 | 84 | 1007.7 | |
| 20260506030143 | 76 | 0.0 | 0.0 | 0.00 | 0.00 | 0.00 | 84 | 1007.5 | |
| 20260506025641 | 77 | 0.0 | 0.0 | 0.00 | 0.00 | 0.00 | 83 | 1007.5 | |
| 20260506025139 | 77 | 0.0 | 0.0 | 0.00 | 0.00 | 0.00 | 83 | 1007.5 | |
| 20260506024635 | 77 | 0.0 | 0.0 | 0.00 | 0.00 | 0.00 | 83 | 1007.4 | |
| 20260506024133 | 77 | 0.0 | 0.9 | 0.00 | 0.00 | 0.00 | 82 | 1007.3 | |
| 20260506023631 | 77 | 0.0 | 0.9 | 0.00 | 0.00 | 0.00 | 82 | 1007.2 | |
| 20260506023129 | 77 | 0.0 | 0.9 | 0.00 | 0.00 | 0.00 | 82 | 1007.1 | |
| 20260506022625 | 77 | 0.0 | 0.9 | 0.00 | 0.00 | 0.00 | 82 | 1007.0 | |
| 20260506022123 | 77 | 0.0 | 0.0 | 0.00 | 0.00 | 0.00 | 81 | 1006.9 | |
| 20260506021621 | 78 | 0.0 | 0.0 | 0.00 | 0.00 | 0.00 | 81 | 1006.8 | |
| 20260506021119 | 78 | 0.0 | 0.0 | 0.00 | 0.00 | 0.00 | 81 | 1006.8 | |
| 20260506020615 | 78 | 0.0 | 0.9 | 0.00 | 0.00 | 0.00 | 81 | 1006.7 | |
| 20260506020113 | 78 | 0.0 | 0.9 | 0.00 | 0.00 | 0.00 | 81 | 1006.7 | |
| 20260506015611 | 78 | 0.0 | 0.9 | 0.00 | 0.00 | 0.00 | 80 | 1006.7 | |
| 20260506015109 | 78 | 0.0 | 0.9 | 0.00 | 0.00 | 0.00 | 80 | 1006.7 | |
| 20260506014605 | 78 | 0.0 | 0.0 | 0.00 | 0.00 | 0.00 | 80 | 1006.5 | |
| 20260506014103 | 78 | 0.0 | 0.0 | 0.00 | 0.00 | 0.00 | 79 | 1006.4 | |
| 20260506013601 | 79 | 0.0 | 0.9 | 0.00 | 0.00 | 0.00 | 79 | 1006.4 | |
| 20260506013059 | 79 | 0.0 | 0.9 | 0.00 | 0.00 | 0.00 | 78 | 1006.4 | |
| 20260506012555 | 79 | 0.0 | 0.0 | 0.00 | 0.00 | 0.00 | 77 | 1006.3 | |
| 20260506012053 | 79 | 0.0 | 0.9 | 0.00 | 0.00 | 0.00 | 77 | 1006.3 | |
| 20260506011551 | 79 | 0.0 | 0.9 | 0.00 | 0.00 | 0.00 | 76 | 1006.2 | |
| 20260506011049 | 80 | 0.0 | 0.9 | 0.00 | 0.00 | 0.00 | 76 | 1006.3 | |
| 20260506010545 | 80 | 0.0 | 0.9 | 0.00 | 0.00 | 0.00 | 76 | 1006.2 | |
| 20260506010043 | 80 | 0.0 | 2.6 | 0.00 | 0.00 | 0.00 | 75 | 1006.2 | |
| 20260506005541 | 80 | 0.0 | 3.5 | 0.00 | 0.00 | 0.00 | 75 | 1006.2 | |
| 20260506005037 | 81 | 0.0 | 6.1 | 0.00 | 0.00 | 0.00 | 75 | 1006.2 | |
| 20260506004535 | 81 | 0.0 | 5.2 | 0.00 | 0.00 | 0.00 | 74 | 1006.2 | |
| 20260506004033 | 81 | 0.0 | 3.5 | 0.00 | 0.00 | 0.00 | 74 | 1006.3 | |
| 20260506003529 | 81 | 0.0 | 3.5 | 0.00 | 0.00 | 0.00 | 74 | 1006.3 | |
| 20260506003027 | 82 | 0.0 | 2.6 | 0.00 | 0.00 | 0.00 | 73 | 1006.4 | |
| 20260506002525 | 82 | 0.0 | 2.6 | 0.00 | 0.00 | 0.00 | 73 | 1006.2 | |
| 20260506002023 | 82 | 0.0 | 3.5 | 0.00 | 0.00 | 0.00 | 74 | 1006.3 | |
| 20260506001519 | 82 | 0.0 | 3.5 | 0.00 | 0.00 | 0.00 | 73 | 1006.3 | |
| 20260506001017 | 82 | 0.0 | 3.5 | 0.00 | 0.00 | 0.00 | 73 | 1006.2 | |
| 20260506000515 | 82 | 161 | 0.9 | 4.3 | 0.00 | 0.00 | 0.00 | 73 | 1006.2 |
| 20260506000013 | 82 | 0.0 | 3.5 | 0.00 | 0.00 | 0.00 | 72 | 1006.4 | |
| 20260505235509 | 82 | 0.0 | 3.5 | 0.00 | 0.00 | 0.00 | 72 | 1006.4 | |
| 20260505235007 | 82 | 0.0 | 5.2 | 0.00 | 0.00 | 0.00 | 72 | 1006.2 | |
| 20260505234505 | 82 | 181 | 0.9 | 5.2 | 0.00 | 0.00 | 0.00 | 71 | 1006.4 |
| 20260505234003 | 82 | 0.0 | 5.2 | 0.00 | 0.00 | 0.00 | 71 | 1006.2 | |
| 20260505233459 | 82 | 0.0 | 4.3 | 0.00 | 0.00 | 0.00 | 71 | 1006.2 | |
| 20260505232957 | 82 | 0.0 | 4.3 | 0.00 | 0.00 | 0.00 | 71 | 1006.1 | |
| 20260505232455 | 82 | 0.9 | 4.3 | 0.00 | 0.00 | 0.00 | 70 | 1006.0 | |
| 20260505231953 | 82 | 176 | 0.9 | 4.3 | 0.00 | 0.00 | 0.00 | 70 | 1006.0 |
| 20260505231449 | 83 | 194 | 0.9 | 4.3 | 0.00 | 0.00 | 0.00 | 72 | 1006.0 |
| 20260505230947 | 83 | 0.9 | 5.2 | 0.00 | 0.00 | 0.00 | 70 | 1005.9 | |
| 20260505230445 | 83 | 188 | 0.9 | 5.2 | 0.00 | 0.00 | 0.00 | 70 | 1005.8 |
| 20260505225943 | 83 | 0.9 | 4.3 | 0.00 | 0.00 | 0.00 | 70 | 1005.8 | |
| 20260505225439 | 83 | 183 | 0.9 | 4.3 | 0.00 | 0.00 | 0.00 | 70 | 1005.8 |
| 20260505224937 | 83 | 0.0 | 3.5 | 0.00 | 0.00 | 0.00 | 70 | 1005.7 | |
| 20260505224435 | 83 | 158 | 0.9 | 4.3 | 0.00 | 0.00 | 0.00 | 70 | 1005.7 |
| 20260505223933 | 83 | 0.0 | 5.2 | 0.00 | 0.00 | 0.00 | 70 | 1005.7 | |
| 20260505223429 | 83 | 190 | 1.7 | 6.1 | 0.00 | 0.00 | 0.00 | 71 | 1005.8 |
| 20260505222927 | 83 | 188 | 1.7 | 7.0 | 0.00 | 0.00 | 0.00 | 70 | 1005.9 |
| 20260505222425 | 83 | 191 | 0.9 | 7.0 | 0.00 | 0.00 | 0.00 | 70 | 1005.8 |
| 20260505221923 | 83 | 167 | 0.9 | 7.0 | 0.00 | 0.00 | 0.00 | 70 | 1005.7 |
| 20260505221419 | 83 | 0.9 | 7.0 | 0.00 | 0.00 | 0.00 | 70 | 1005.6 | |
| 20260505220917 | 83 | 178 | 0.9 | 7.0 | 0.00 | 0.00 | 0.00 | 71 | 1005.7 |
| 20260505220413 | 83 | 148 | 0.9 | 7.0 | 0.00 | 0.00 | 0.00 | 70 | 1005.7 |
| 20260505215911 | 83 | 166 | 0.9 | 8.7 | 0.00 | 0.00 | 0.00 | 70 | 1005.7 |
| 20260505215409 | 84 | 191 | 3.5 | 9.6 | 0.00 | 0.00 | 0.00 | 68 | 1005.8 |
| 20260505214907 | 84 | 158 | 1.7 | 7.8 | 0.00 | 0.00 | 0.00 | 70 | 1005.9 |
| 20260505214403 | 84 | 156 | 1.7 | 9.6 | 0.00 | 0.00 | 0.00 | 69 | 1006.0 |
| 20260505213901 | 84 | 194 | 0.9 | 9.6 | 0.00 | 0.00 | 0.00 | 70 | 1005.9 |
| 20260505213359 | 84 | 149 | 0.9 | 5.2 | 0.00 | 0.00 | 0.00 | 69 | 1005.9 |
| 20260505212857 | 84 | 168 | 2.6 | 7.0 | 0.00 | 0.00 | 0.00 | 69 | 1006.1 |
| 20260505212352 | 84 | 191 | 0.9 | 7.0 | 0.00 | 0.00 | 0.00 | 69 | 1006.2 |
| 20260505211850 | 84 | 182 | 0.9 | 6.1 | 0.00 | 0.00 | 0.00 | 69 | 1006.2 |
| 20260505211349 | 84 | 180 | 1.7 | 6.1 | 0.00 | 0.00 | 0.00 | 70 | 1006.3 |
| 20260505210846 | 84 | 0.0 | 6.1 | 0.00 | 0.00 | 0.00 | 71 | 1006.4 | |
| 20260505210342 | 84 | 0.0 | 5.2 | 0.00 | 0.00 | 0.00 | 71 | 1006.5 | |
| 20260505205840 | 83 | 0.9 | 4.3 | 0.00 | 0.00 | 0.00 | 71 | 1006.5 | |
| 20260505205338 | 83 | 192 | 0.9 | 7.0 | 0.00 | 0.00 | 0.00 | 71 | 1006.5 |
| 20260505204836 | 84 | 187 | 1.7 | 7.0 | 0.00 | 0.00 | 0.00 | 68 | 1006.5 |
| 20260505204332 | 85 | 192 | 0.9 | 5.2 | 0.00 | 0.00 | 0.00 | 69 | 1006.7 |
| 20260505203831 | 84 | 0.0 | 7.8 | 0.00 | 0.00 | 0.00 | 71 | 1006.5 | |
| 20260505203328 | 84 | 195 | 1.7 | 10.4 | 0.00 | 0.00 | 0.00 | 70 | 1006.5 |
| 20260505202826 | 84 | 0.0 | 10.4 | 0.00 | 0.00 | 0.00 | 69 | 1006.8 | |
| 20260505202322 | 84 | 178 | 0.9 | 6.1 | 0.00 | 0.00 | 0.00 | 69 | 1006.8 |
| 20260505201820 | 84 | 187 | 0.9 | 7.0 | 0.00 | 0.00 | 0.00 | 69 | 1006.9 |
| 20260505201318 | 83 | 184 | 1.7 | 8.7 | 0.00 | 0.00 | 0.00 | 68 | 1007.1 |
| 20260505200816 | 83 | 184 | 1.7 | 8.7 | 0.00 | 0.00 | 0.00 | 68 | 1007.1 |
| 20260505200312 | 83 | 177 | 0.9 | 8.7 | 0.00 | 0.00 | 0.00 | 70 | 1007.1 |
| 20260505195810 | 83 | 185 | 1.7 | 8.7 | 0.00 | 0.00 | 0.00 | 69 | 1007.2 |
| 20260505195308 | 83 | 176 | 2.6 | 8.7 | 0.00 | 0.00 | 0.00 | 69 | 1007.2 |
| 20260505194806 | 83 | 172 | 2.6 | 8.7 | 0.00 | 0.00 | 0.00 | 70 | 1007.1 |
| 20260505194302 | 83 | 162 | 2.6 | 8.7 | 0.00 | 0.00 | 0.00 | 70 | 1007.3 |
| 20260505193800 | 83 | 189 | 0.9 | 7.0 | 0.00 | 0.00 | 0.00 | 71 | 1007.4 |
| 20260505193256 | 82 | 180 | 1.7 | 7.0 | 0.00 | 0.00 | 0.00 | 71 | 1007.5 |
| 20260505192754 | 82 | 0.9 | 7.0 | 0.00 | 0.00 | 0.00 | 71 | 1007.6 | |
| 20260505192254 | 82 | 181 | 1.7 | 7.0 | 0.00 | 0.00 | 0.00 | 72 | 1007.6 |
| 20260505191752 | 82 | 182 | 1.7 | 7.0 | 0.00 | 0.00 | 0.00 | 70 | 1007.6 |
| 20260505191248 | 81 | 190 | 1.7 | 9.6 | 0.00 | 0.00 | 0.00 | 71 | 1007.6 |
| 20260505190746 | 82 | 179 | 1.7 | 9.6 | 0.00 | 0.00 | 0.00 | 69 | 1007.7 |
| 20260505190242 | 82 | 159 | 0.9 | 7.0 | 0.00 | 0.00 | 0.00 | 71 | 1007.7 |
| 20260505185740 | 82 | 157 | 0.9 | 7.0 | 0.00 | 0.00 | 0.00 | 73 | 1007.8 |
| 20260505185238 | 81 | 197 | 0.9 | 7.0 | 0.00 | 0.00 | 0.00 | 71 | 1007.8 |
| 20260505184736 | 81 | 166 | 1.7 | 7.0 | 0.00 | 0.00 | 0.00 | 71 | 1007.9 |
| 20260505184232 | 81 | 164 | 0.9 | 4.3 | 0.00 | 0.00 | 0.00 | 73 | 1008.1 |
| 20260505183730 | 81 | 0.9 | 6.1 | 0.00 | 0.00 | 0.00 | 73 | 1008.1 | |
| 20260505183228 | 81 | 190 | 0.9 | 6.1 | 0.00 | 0.00 | 0.00 | 74 | 1008.2 |
| 20260505182726 | 80 | 0.0 | 4.3 | 0.00 | 0.00 | 0.00 | 75 | 1008.3 | |
| 20260505182222 | 80 | 186 | 0.9 | 6.1 | 0.00 | 0.00 | 0.00 | 74 | 1008.4 |
| 20260505181720 | 79 | 0.9 | 6.1 | 0.00 | 0.00 | 0.00 | 74 | 1008.5 | |
| 20260505181218 | 79 | 0.9 | 5.2 | 0.00 | 0.00 | 0.00 | 76 | 1008.5 | |
| 20260505180716 | 79 | 175 | 1.7 | 9.6 | 0.00 | 0.00 | 0.00 | 76 | 1008.5 |
| 20260505180212 | 78 | 161 | 1.7 | 9.6 | 0.00 | 0.00 | 0.00 | 76 | 1008.5 |
| 20260505175710 | 78 | 196 | 0.9 | 7.0 | 0.00 | 0.00 | 0.00 | 77 | 1008.5 |
| 20260505175208 | 78 | 0.0 | 5.2 | 0.00 | 0.00 | 0.00 | 76 | 1008.7 | |
| 20260505174706 | 78 | 212 | 0.9 | 7.8 | 0.00 | 0.00 | 0.00 | 77 | 1008.9 |
| 20260505174202 | 78 | 201 | 0.9 | 7.8 | 0.00 | 0.00 | 0.00 | 77 | 1008.9 |
| 20260505173700 | 77 | 174 | 0.9 | 4.3 | 0.00 | 0.00 | 0.00 | 79 | 1008.9 |
| 20260505173158 | 76 | 190 | 0.9 | 5.2 | 0.00 | 0.00 | 0.00 | 79 | 1008.8 |
| 20260505172656 | 76 | 0.0 | 4.3 | 0.00 | 0.00 | 0.00 | 79 | 1008.8 | |
| 20260505172152 | 76 | 0.9 | 6.1 | 0.00 | 0.00 | 0.00 | 80 | 1008.9 | |
| 20260505171650 | 76 | 0.0 | 6.1 | 0.00 | 0.00 | 0.00 | 81 | 1008.9 | |
| 20260505171148 | 76 | 172 | 1.7 | 8.7 | 0.00 | 0.00 | 0.00 | 82 | 1008.9 |
| 20260505170646 | 75 | 175 | 0.9 | 8.7 | 0.00 | 0.00 | 0.00 | 82 | 1008.8 |
| 20260505170142 | 75 | 186 | 0.9 | 5.2 | 0.00 | 0.00 | 0.00 | 83 | 1009.0 |
| 20260505165640 | 74 | 0.0 | 6.1 | 0.00 | 0.00 | 0.00 | 83 | 1009.0 | |
| 20260505165138 | 74 | 181 | 0.9 | 6.1 | 0.00 | 0.00 | 0.00 | 83 | 1009.0 |
| 20260505164636 | 74 | 0.0 | 4.3 | 0.00 | 0.00 | 0.00 | 84 | 1009.0 | |
| 20260505164132 | 74 | 0.9 | 4.3 | 0.00 | 0.00 | 0.00 | 83 | 1009.0 | |
| 20260505163630 | 74 | 0.0 | 4.3 | 0.00 | 0.00 | 0.00 | 84 | 1009.0 | |
| 20260505163128 | 74 | 0.0 | 4.3 | 0.00 | 0.00 | 0.00 | 84 | 1009.1 | |
| 20260505162626 | 73 | 0.0 | 9.6 | 0.00 | 0.00 | 0.00 | 84 | 1009.0 | |
| 20260505162122 | 73 | 187 | 0.9 | 9.6 | 0.00 | 0.00 | 0.00 | 85 | 1009.1 |
| 20260505161620 | 73 | 0.0 | 4.3 | 0.00 | 0.00 | 0.00 | 85 | 1009.1 | |
| 20260505161116 | 73 | 0.0 | 4.3 | 0.00 | 0.00 | 0.00 | 85 | 1009.1 | |
| 20260505160614 | 73 | 0.0 | 5.2 | 0.00 | 0.00 | 0.00 | 84 | 1008.9 | |
| 20260505160112 | 73 | 195 | 0.9 | 5.2 | 0.00 | 0.00 | 0.00 | 85 | 1008.9 |
| 20260505153056 | 72 | 0.0 | 4.3 | 0.00 | 0.00 | 0.00 | 87 | 1009.0 | |
| 20260505152554 | 72 | 0.0 | 4.3 | 0.00 | 0.00 | 0.00 | 87 | 1009.0 | |
| 20260505152052 | 72 | 0.9 | 4.3 | 0.00 | 0.00 | 0.00 | 87 | 1009.0 | |
| 20260505151550 | 72 | 0.9 | 5.2 | 0.00 | 0.00 | 0.00 | 87 | 1009.0 | |
| 20260505151046 | 72 | 0.9 | 5.2 | 0.00 | 0.00 | 0.00 | 87 | 1008.9 | |
| 20260505150544 | 72 | 188 | 0.9 | 3.5 | 0.00 | 0.00 | 0.00 | 87 | 1008.9 |
| 20260505140514 | 71 | 0.0 | 6.1 | 0.00 | 0.00 | 0.00 | 87 | 1008.4 | |
| 20260505124936 | 70 | 0.0 | 6.1 | 0.00 | 0.00 | 0.00 | 88 | 1007.9 | |
| 20260505124434 | 70 | 160 | 0.9 | 6.1 | 0.00 | 0.00 | 0.00 | 88 | 1007.9 |
| 20260505123930 | 70 | 183 | 0.9 | 8.7 | 0.00 | 0.00 | 0.00 | 88 | 1007.8 |
| 20260505123428 | 70 | 0.0 | 8.7 | 0.00 | 0.00 | 0.00 | 88 | 1007.7 | |
| 20260505122926 | 70 | 176 | 1.7 | 7.0 | 0.00 | 0.00 | 0.00 | 88 | 1007.5 |
| 20260505122424 | 70 | 0.9 | 5.2 | 0.00 | 0.00 | 0.00 | 88 | 1007.4 | |
| 20260505121920 | 70 | 0.9 | 6.1 | 0.00 | 0.00 | 0.00 | 88 | 1007.3 | |
| 20260505121419 | 70 | 184 | 1.7 | 7.0 | 0.00 | 0.00 | 0.00 | 88 | 1007.2 |
| 20260505120916 | 70 | 170 | 1.7 | 7.0 | 0.00 | 0.00 | 0.00 | 88 | 1007.2 |
| 20260505120414 | 70 | 0.0 | 5.2 | 0.00 | 0.00 | 0.00 | 89 | 1007.2 | |
| 20260505115910 | 70 | 187 | 0.9 | 6.1 | 0.00 | 0.00 | 0.00 | 89 | 1007.1 |
| 20260505115408 | 70 | 170 | 0.9 | 7.8 | 0.00 | 0.00 | 0.00 | 88 | 1007.0 |
| 20260505114906 | 70 | 147 | 1.7 | 7.8 | 0.00 | 0.00 | 0.00 | 88 | 1006.9 |
| 20260505114404 | 70 | 182 | 0.9 | 5.2 | 0.00 | 0.00 | 0.00 | 88 | 1006.9 |